Location: Isles
(48.9125°N, 2.8272°E)
Time: 10:41:37
(UTC+00:00)

Cosmos 2322 - Pass Details

Date: 03 February 2023
Orbit: 841 x 853 km, 71.0° (Epoch: 29 March)

Event Time Altitude Azimuth Distance (km) Brightness Sun altitude
Rises 18:52:47 0° 183° (S) 3,407 6.9 -20.5°
Reaches altitude 10° 18:55:21 10° 176° (S) 2,476 6.1 -20.9°
Enters shadow 19:00:08 40° 121° (ESE) 1,238 4.1 -21.7°
